Location: Axtheid
(49.6213°N, 11.8205°E)
Time: 13:18:50
(UTC+00:00)

Envisat - Visible Passes

Search period start: 30 September 2022 00:00
Search period end: 10 October 2022 00:00
Orbit: 764 x 765 km, 98.2° (Epoch: 29 September)

Date Brightness Start Highest point End Pass type
(mag) Time Alt. Az. Time Alt. Az. Time Alt. Az.
30 Sep 5.4 02:32:09 10° NE 02:36:00 21° E 02:39:50 10° SE visible
30 Sep 3.0 04:10:24 10° N 04:15:26 61° WNW 04:20:25 10° SSW visible
01 Oct 3.3 03:33:24 10° NNE 03:38:29 69° ESE 03:43:32 10° S visible
02 Oct 4.6 02:56:44 10° NNE 03:01:21 34° E 03:05:56 10° SSE visible
02 Oct 3.5 04:35:43 10° N 04:40:24 38° WNW 04:45:04 10° SW visible
03 Oct 5.6 02:20:42 10° NE 02:24:00 17° E 02:27:18 10° SE visible
03 Oct 2.9 03:58:30 10° N 04:03:36 75° WNW 04:08:39 10° SSW visible
04 Oct 3.7 03:21:35 10° NNE 03:26:36 55° E 03:31:34 10° S visible
05 Oct 5.0 02:45:04 10° NE 02:49:24 27° E 02:53:42 10° SSE visible
05 Oct 3.3 04:23:45 10° N 04:28:37 47° WNW 04:33:27 10° SW visible
06 Oct 5.8 02:09:28 10° NE 02:11:59 14° E 02:14:30 10° ESE visible
06 Oct 3.0 03:46:37 10° NNE 03:51:45 88° ESE 03:56:50 10° SSW visible
07 Oct 4.1 03:09:48 10° NNE 03:14:41 44° E 03:19:31 10° S visible
08 Oct 5.3 02:33:28 10° NE 02:37:25 22° E 02:41:20 10° SE visible
08 Oct 3.1 04:11:48 10° N 04:16:48 58° WNW 04:21:46 10° SSW visible
09 Oct 6.0 01:58:52 10° ENE 01:59:56 11° E 02:01:00 10° E visible
09 Oct 3.2 03:34:46 10° NNE 03:39:52 72° ESE 03:44:56 10° S visible
